Location: Aiyekoto
(8.4333°N, 4.3667°E)
Time: 01:08:57
(UTC+00:00)

Cosmos 1934 Rocket - Pass Details

Date: 07 June 2020
Orbit: 939 x 998 km, 83.0° (Epoch: 13 July)

Event Time Altitude Azimuth Distance (km) Brightness Sun altitude
Exits shadow 04:13:10 21° 215° (SW) 2,009 5.1 -16.6°
Maximum altitude 04:16:51 42° 274° (W) 1,322 4.3 -15.8°
Drops below altitude 10° 04:22:31 10° 344° (NNW) 2,648 6.4 -14.5°
Sets 04:25:08 0° 351° (N) 3,589 7.2 -14.0°
